FENGYUN 1C DEB, 38135

Orbit data source: Space-Track

FENGYUN 1C DEB, 38135 is space debris in SSO originally from a launch on Mon, 10 May 1999 UTC launched from the Taiyaun Space Center, China (TSC). Fengyun 1C debris stems from the Chinese weather satellite Fengyun-1C, which was intentionally destroyed by a Chinese anti-satellite missile in 2007. This event dramatically increased the amount of space debris, with thousands of trackable fragments posing hazards to satellites and human spaceflight. The Fengyun 1C debris cloud has become a focal point in discussions about space sustainability and the need for international regulations to prevent the creation of new debris.

Loading next visibility...
Identifier
38135, 1999-025EQG
Orbit
SSO
Country
Flag of CNCN / PRC
Related business
Manufacturer
Unknown
Mission
Spacecraft
Bus & Motor
Unknown
Mass
Unknown
Launch date (UTC)
Icon of a cake. It is the launch day of the satellite!1999-05-10 (27 years ago)
Launch vehicle
Unknown
Launch site
Taiyaun Space Center, China (TSC)
Object type
Payload
Rocket body
Debris
Shape & HBR
Unknown shape, 0.1 m
Radar Cross Section
Small (<0.1 m²)

Expand to show TLE details & history
Last TLE update: 3 weeks ago

TLE from 3 weeks ago
0 FENGYUN 1C DEB
1 38135U 99025EQG 26108.88715682  .00000814  00000-0  28046-3 0  9993
2 38135  98.6376 169.0524 0221981  60.9167 301.4045 14.25680639628524
Epoch: 2026-04-18T21:17Z
TLE epoch observation values (Epoch: 2026-04-18T21:17:30.349Z)
Latitude
-0.00003°
Longitude
2.6764°
Altitude
728.637 km
Speed
7.533 km/s
True Right ascension
11h 16m 12s
True Declination
0° 00' 00"
Sunlit
Object was in full shadow at epoch
Visualization orbit readout
Latitude
Unknown
Longitude
Unknown
Altitude
Unknown
Speed
Unknown
Apparent Right ascension
Unknown
Apparent Declination
Unknown
Sunlit
N/A
Visualization observer readout
Local Sidereal Time
14:01:24
Azimuth
Unknown
Elevation
Unknown
Doppler factor
Unknown
Orbital elements
Apogee altitude
962.766 km
Perigee altitude
643.935 km
Semi-major axis
7,181.488 km
Eccentricity
0.0222
Inclination
98.6376°
RAAN
169.0524°
Arg. of periapsis
60.9167°
True anomaly
299.20213°
Mean anomaly
301.4045°
Eccentric anomaly
300.30646°
Mean motion
3.56633 °/min
Orbital period
100.94 mins
BSTAR
0.00028046
Loading maneuver chart data...
Computing Atmospheric mass density...

Documentation

Showing up to 5 results
|